NIMBUS 2 DEB, 28620

Orbit data source: Space-Track

NIMBUS 2 DEB, 28620 is space debris in SSO originally from a launch on Sun, 15 May 1966 UTC launched from the Air Force Western Test Range (AFWTR). Debris objects in space refer to the collection of defunct objects orbiting the Earth. Examples of debris include non-operational satellites, rocket bodies, and fragments generated from explosions, collisions, or faulty payload assembly.

Loading next visibility...
Identifier
28620, 1966-040AK
Orbit
SSO
Country
Flag of USUS
Related business
Manufacturer
Unknown
Mission
Spacecraft
Bus & Motor
Unknown
Mass
Unknown
Launch date (UTC)
1966-05-15 (60 years ago)
Launch vehicle
Unknown
Launch site
Air Force Western Test Range (AFWTR)
Object type
Payload
Rocket body
Debris
Shape & HBR
Unknown shape, 0.1 m
Radar Cross Section
Small (<0.1 m²)

Expand to show TLE details & history
Last TLE update: 1 day ago

TLE from 1 day ago
0 NIMBUS 2 DEB
1 28620U 66040AK  26261.53906394  .00001498  00000-0  23163-2 0  9999
2 28620 100.4321 178.1156 0038739 153.9179  22.2999 13.52751204 63838
Epoch: 2026-09-18T12:56Z
TLE epoch observation values (Epoch: 2026-09-18T12:56:15.124Z)
Latitude
3.46223°
Longitude
167.22702°
Altitude
1,037.878 km
Speed
7.346 km/s
True Right ascension
23h 55m 00s
True Declination
3° 26' 32"
Sunlit
Object was in full shadow at epoch
Visualization orbit readout
Latitude
Unknown
Longitude
Unknown
Altitude
Unknown
Speed
Unknown
Apparent Right ascension
Unknown
Apparent Declination
Unknown
Sunlit
N/A
Visualization observer readout
Local Sidereal Time
17:06:09
Azimuth
Unknown
Elevation
Unknown
Doppler factor
Unknown
Orbital elements
Apogee altitude
1,088.303 km
Perigee altitude
1,030.677 km
Semi-major axis
7,437.627 km
Eccentricity
0.00387
Inclination
100.4321°
RAAN
178.1156°
Arg. of periapsis
153.9179°
True anomaly
22.4691°
Mean anomaly
22.2999°
Eccentric anomaly
22.38443°
Mean motion
3.3837 °/min
Orbital period
106.39 mins
BSTAR
0.0023163
Loading maneuver chart data...
Computing Atmospheric mass density...
Loading historical data...
Loading historical data...
Loading historical data...
Loading historical data...
Loading historical data...
Loading historical data...
Loading historical data...

Documentation

Showing up to 5 results
|